Wind_Speed
27 27 25 24 22 22 23 23 27 27 26 25 25 19 15 12 12 10 6 5 10 13 12 8 17 17 15 13 14 13 15 17 15 14 13 14 12 11 9 8 8 11 13 14
30 25 24 26 26 26 26 24 24 27 30 30 26 18 20 17 17 14 8 6 8 8 9 11 15 15 17 18 19 17 16 19 19 16 14 14 14 11 11 9 9 8 11 13
31 26 28 29 28 29 28 22 25 27 29 29 30 25 20 17 17 13 9 7 6 4 10 13 12 17 17 18 17 19 20 21 21 19 15 14 15 13 12 11 9 8 9 12
35 34 31 30 27 27 28 25 27 28 28 32 32 30 23 20 19 14 9 13 10 4 10 11 12 13 17 17 19 19 18 20 20 19 18 17 17 16 12 11 7 8 7 10
35 36 35 34 32 29 27 29 32 34 32 33 32 29 26 19 16 13 14 17 9 5 12 12 14 15 19 17 17 21 20 19 21 21 19 16 13 14 13 10 8 8 7 6
36 37 38 36 36 34 34 31 31 36 36 36 32 30 26 16 18 17 15 21 12 6 15 14 16 16 13 15 18 18 22 21 21 22 20 19 15 13 14 13 11 9 7 7
39 40 39 37 37 37 36 35 34 33 33 34 34 33 20 17 20 18 16 11 15 15 20 18 19 15 12 9 17 18 20 22 21 21 22 21 19 17 15 15 14 12 8 7
37 40 40 39 40 39 38 38 39 36 35 36 36 39 27 23 25 23 18 17 15 17 23 22 22 18 16 14 14 18 21 25 23 22 23 23 21 20 18 16 15 13 11 7
33 35 37 40 40 41 41 41 40 39 38 42 38 35 34 33 30 29 26 25 23 20 17 28 28 25 21 19 17 17 18 24 27 25 25 25 23 22 20 19 17 15 14 11
30 30 32 36 37 40 40 42 42 43 42 42 37 34 39 37 38 33 34 31 29 29 28 34 32 26 23 23 20 19 20 19 26 28 26 26 27 26 25 22 20 18 17 14
22 23 26 29 32 35 38 40 43 43 43 45 42 39 39 42 41 39 37 36 33 30 29 30 32 30 31 29 23 21 21 23 21 26 27 27 27 29 27 24 23 21 18 16
26 28 28 33 34 37 37 38 39 41 45 45 42 39 44 42 43 43 40 35 32 31 30 28 24 22 25 30 29 24 23 23 22 23 30 30 29 29 29 29 26 24 21 20
23 25 28 33 37 39 39 39 39 39 40 41 42 44 45 45 47 44 41 39 34 31 30 31 33 30 31 30 27 32 29 27 25 25 25 31 31 31 29 31 30 27 26 24
21 25 26 32 36 39 42 42 42 43 42 40 40 41 47 44 48 47 45 42 38 36 32 34 38 36 35 36 36 36 37 33 30 27 27 27 31 32 34 34 34 32 30 28
21 22 20 22 26 32 37 41 45 47 49 47 47 44 46 48 44 47 45 45 43 41 39 37 41 40 41 41 36 42 43 42 37 33 29 29 30 33 37 38 37 35 33 31
18 19 19 23 25 27 30 35 44 52 53 53 52 49 49 51 47 44 47 50 47 45 43 43 45 46 43 41 38 43 40 43 42 38 32 30 32 32 35 39 39 39 36 34
25 26 25 22 23 30 36 40 42 43 48 59 58 56 56 56 54 49 45 51 51 47 46 51 50 52 44 44 45 42 45 44 43 40 39 36 34 32 35 40 42 41 40 39
33 28 27 26 27 31 35 38 44 48 52 52 55 63 60 64 62 56 48 52 51 50 51 57 55 54 48 45 46 43 45 44 49 50 44 43 39 33 34 40 42 43 43 41
22 23 25 24 25 30 35 40 48 55 56 60 63 57 68 69 71 66 58 51 57 60 57 57 55 52 52 49 46 48 48 49 55 57 49 46 43 38 35 37 39 43 46 44
20 22 23 22 23 26 35 42 48 49 49 47 59 68 64 72 76 74 67 58 58 61 61 59 56 55 55 54 56 43 35 41 57 55 51 48 46 41 40 40 40 43 46 47
17 20 22 26 34 37 37 39 40 46 44 42 44 52 65 73 75 77 76 65 61 64 67 60 59 59 57 53 54 54 39 41 46 43 45 49 45 42 37 37 39 40 42 47
11 14 19 28 32 32 31 32 38 40 42 44 45 44 48 65 75 76 80 76 68 64 70 72 60 61 62 53 54 57 51 48 58 53 53 55 52 46 41 37 33 36 39 42
8 9 12 16 19 20 21 25 32 35 38 39 49 48 46 49 72 77 80 81 75 70 72 79 67 55 65 50 52 58 60 43 50 44 43 39 43 49 47 38 34 35 36 38
7 10 14 18 17 16 16 20 23 27 33 36 43 47 50 48 72 71 80 81 81 77 72 78 79 79 58 51 53 53 55 45 42 35 31 43 44 47 45 43 37 36 35 34
5 9 13 18 21 23 21 22 23 23 25 34 37 44 46 48 50 75 70 83 82 79 77 75 81 83 65 65 74 59 68 58 56 53 41 41 51 55 58 53 44 39 37 35
15 16 14 16 19 22 21 21 24 26 25 22 30 33 40 44 46 54 73 73 77 79 79 78 78 80 86 87 70 55 59 72 60 57 51 40 44 55 59 57 53 48 40 34
Wind_Direction
224 221 221 218 216 214 209 208 213 220 232 237 238 206 196 184 199 205 241 233 204 189 179 214 201 185 173 173 163 174 164 161 157 156 153 150 137 136 133 119 99 86 93 92
221 218 217 217 214 214 210 207 210 211 220 233 244 237 210 199 191 199 163 134 168 173 157 198 195 202 180 183 176 178 175 174 167 161 156 151 149 141 132 125 115 104 93 80
223 218 217 218 214 214 214 204 213 215 216 227 238 236 225 222 215 191 160 162 159 180 156 176 189 205 196 191 179 184 183 183 177 163 158 157 156 147 145 135 131 115 99 84
225 224 223 222 220 217 218 199 206 219 224 224 230 233 229 220 223 204 174 171 170 188 171 167 184 209 211 199 189 189 193 189 182 173 170 177 165 151 150 140 140 134 116 98
226 226 226 226 224 219 221 211 201 211 219 231 234 232 235 229 231 221 188 179 182 232 210 169 184 196 220 219 199 193 193 195 187 185 181 183 175 157 155 152 150 148 135 109
223 225 225 224 227 224 225 223 216 216 219 229 235 236 232 229 229 221 209 185 195 198 216 187 192 196 221 231 226 207 191 193 195 189 189 187 178 179 169 167 163 162 150 127
221 225 224 224 227 229 226 227 226 225 229 233 230 240 228 230 235 225 215 214 204 191 203 191 199 193 208 213 234 217 199 197 196 196 194 193 186 185 191 181 177 169 168 150
221 224 228 227 227 231 231 231 230 228 230 231 224 230 235 224 233 231 212 214 207 206 197 207 194 201 208 207 207 218 203 197 199 200 201 200 194 192 191 194 186 179 171 173
219 225 227 229 229 230 230 231 233 231 230 233 227 228 229 234 223 228 225 218 204 198 204 208 198 193 205 206 213 211 216 205 201 202 206 202 202 200 198 199 198 192 182 187
217 220 226 231 230 230 229 231 230 231 229 232 231 227 229 231 235 224 228 228 217 202 183 194 199 193 211 218 218 225 226 218 209 208 209 207 203 208 205 202 208 206 200 193
221 222 223 231 233 235 233 232 234 234 236 236 234 222 227 226 226 227 223 228 227 220 202 197 203 209 207 218 218 233 236 233 217 215 214 218 211 208 212 210 208 215 213 213
224 217 211 217 226 234 235 235 236 238 237 240 240 234 226 226 227 229 232 230 231 231 220 206 198 199 194 212 221 225 232 229 223 217 213 214 219 215 212 213 213 214 216 224
226 219 213 218 226 233 235 236 236 237 237 239 241 241 237 232 230 225 227 233 233 236 236 219 210 208 201 208 209 217 227 224 222 225 226 220 219 217 215 215 216 215 215 220
233 232 223 222 227 234 236 235 239 240 237 234 236 240 239 238 241 236 225 231 233 235 235 221 220 215 209 208 212 211 217 220 224 222 224 226 218 217 216 214 214 217 216 219
239 246 244 235 231 237 240 243 241 241 245 242 242 238 239 242 237 240 234 226 229 227 230 223 221 221 223 212 211 214 212 217 219 221 218 223 223 220 217 218 213 215 217 217
245 253 253 247 244 239 236 236 239 240 242 246 247 245 239 239 242 234 234 227 222 228 220 228 225 229 232 227 216 217 217 217 216 219 218 215 225 223 223 220 220 216 217 218
255 260 265 260 254 251 247 245 246 243 243 244 245 245 247 242 241 238 233 233 219 227 222 224 226 233 233 228 219 213 211 214 215 222 220 221 219 221 223 225 222 222 221 219
251 257 263 268 264 258 256 257 260 263 259 249 245 242 243 247 245 240 235 229 227 214 218 216 223 229 227 226 223 219 217 224 216 213 218 220 221 219 221 225 224 222 225 225
251 254 260 262 262 260 265 271 276 274 272 258 249 243 238 242 246 244 235 229 227 219 219 218 221 225 230 227 227 240 238 228 212 212 215 218 222 219 222 225 226 224 224 225
257 252 251 262 269 271 276 277 277 274 270 266 249 242 233 232 239 243 240 232 228 224 221 217 218 223 228 232 230 230 224 221 211 206 213 217 221 221 223 227 224 225 226 225
262 253 254 262 272 271 275 272 272 265 268 258 247 240 229 222 228 235 238 231 227 223 222 214 215 219 223 230 237 234 241 222 206 214 218 221 221 221 220 227 227 226 227 229
283 286 281 275 276 277 278 273 266 270 267 251 243 246 238 226 220 224 232 234 226 223 221 218 209 224 224 222 227 236 239 225 219 225 227 213 218 221 223 224 227 229 232 232
292 277 277 277 282 289 285 283 270 266 262 257 242 242 240 236 220 220 223 232 229 224 221 224 220 208 218 222 227 225 226 210 213 218 229 231 228 219 219 220 224 229 233 233
335 316 310 307 312 316 316 292 282 279 265 255 247 242 243 239 233 228 219 227 231 228 224 220 224 217 212 211 216 209 210 214 226 217 219 209 202 213 219 217 219 224 227 230
316 331 339 338 328 321 319 328 323 312 289 259 254 246 245 244 239 238 226 225 230 230 228 225 223 226 221 215 223 227 219 226 224 236 228 220 223 227 232 218 216 220 225 221
303 309 325 328 332 334 331 322 325 329 320 294 257 254 248 243 243 242 237 231 233 232 231 228 228 229 225 224 214 216 224 230 229 226 229 224 225 214 214 216 214 217 221 226
Height
5830 5835 5840 5843 5846 5849 5852 5856 5860 5863 5864 5866 5868 5876 5877 5880 5884 5885 5886 5887 5890 5896 5898 5904 5905 5905 5906 5908 5911 5915 5918 5919 5922 5924 5925 5927 5928 5931 5932 5933 5934 5935 5938 5939
5825 5831 5834 5837 5841 5843 5846 5851 5856 5858 5860 5860 5864 5870 5873 5876 5877 5880 5883 5886 5888 5893 5898 5902 5907 5909 5909 5909 5911 5915 5919 5920 5921 5925 5927 5928 5930 5933 5934 5934 5936 5937 5939 5941
5820 5826 5828 5831 5835 5839 5843 5849 5849 5852 5855 5859 5860 5867 5871 5875 5876 5879 5881 5883 5886 5891 5893 5897 5904 5908 5909 5909 5910 5914 5919 5920 5921 5923 5926 5929 5930 5932 5934 5935 5938 5938 5940 5941
5814 5818 5823 5827 5831 5835 5839 5846 5846 5847 5851 5854 5857 5860 5867 5872 5874 5876 5879 5881 5885 5889 5892 5893 5899 5906 5908 5907 5907 5911 5917 5920 5921 5922 5925 5927 5929 5930 5933 5934 5938 5940 5941 5942
5809 5812 5817 5821 5826 5831 5834 5839 5842 5842 5846 5849 5853 5860 5863 5869 5874 5876 5877 5880 5883 5886 5890 5892 5895 5899 5904 5907 5906 5909 5913 5920 5922 5922 5923 5926 5928 5929 5932 5934 5937 5940 5941 5943
5800 5805 5809 5815 5818 5825 5827 5833 5838 5841 5842 5845 5849 5854 5861 5868 5870 5872 5875 5877 5879 5883 5886 5889 5891 5895 5900 5905 5907 5908 5910 5916 5920 5922 5923 5924 5926 5930 5931 5934 5936 5939 5941 5942
5794 5797 5803 5809 5812 5817 5823 5827 5832 5838 5841 5844 5846 5849 5860 5864 5865 5868 5871 5875 5876 5878 5882 5887 5889 5893 5897 5902 5907 5907 5908 5912 5917 5920 5923 5924 5925 5929 5932 5934 5936 5938 5940 5942
5788 5793 5798 5802 5806 5811 5816 5819 5824 5831 5835 5837 5841 5843 5853 5857 5860 5863 5867 5870 5874 5877 5879 5884 5888 5891 5895 5899 5902 5906 5906 5908 5913 5917 5921 5923 5925 5927 5930 5934 5935 5936 5939 5941
5782 5787 5790 5794 5799 5803 5806 5810 5816 5823 5827 5828 5835 5842 5846 5847 5853 5857 5861 5863 5867 5869 5873 5879 5885 5887 5892 5896 5900 5902 5905 5906 5909 5913 5917 5921 5924 5926 5927 5931 5933 5935 5937 5940
5776 5781 5783 5785 5790 5792 5796 5802 5806 5811 5817 5819 5828 5838 5839 5841 5844 5851 5853 5858 5861 5864 5866 5871 5878 5884 5889 5894 5896 5900 5903 5905 5906 5909 5913 5917 5920 5924 5926 5928 5932 5934 5935 5938
5772 5776 5779 5779 5781 5783 5790 5793 5797 5804 5807 5809 5817 5828 5828 5829 5832 5838 5846 5851 5857 5861 5867 5869 5872 5878 5881 5889 5892 5897 5901 5903 5904 5906 5910 5914 5917 5920 5924 5927 5930 5932 5934 5937
5764 5768 5770 5770 5773 5774 5781 5786 5791 5795 5799 5801 5807 5814 5816 5817 5823 5831 5839 5846 5851 5856 5861 5866 5869 5872 5874 5881 5887 5892 5897 5900 5902 5903 5904 5910 5913 5915 5920 5923 5926 5929 5932 5934
5756 5760 5763 5764 5767 5769 5773 5778 5782 5785 5789 5792 5797 5803 5806 5810 5813 5823 5830 5839 5845 5849 5854 5860 5861 5865 5867 5869 5876 5885 5891 5895 5896 5900 5902 5905 5909 5911 5915 5919 5922 5925 5928 5931
5746 5749 5754 5759 5761 5763 5767 5771 5774 5776 5779 5783 5786 5793 5799 5803 5804 5813 5824 5831 5839 5843 5847 5852 5855 5858 5860 5864 5869 5874 5881 5887 5890 5893 5896 5901 5903 5907 5909 5912 5915 5920 5923 5926
5740 5742 5747 5752 5756 5759 5762 5763 5765 5767 5768 5774 5777 5785 5791 5791 5797 5802 5812 5821 5829 5835 5840 5844 5848 5853 5856 5858 5863 5867 5872 5876 5880 5885 5889 5894 5897 5900 5903 5906 5910 5914 5918 5921
5735 5736 5739 5743 5747 5752 5754 5753 5754 5755 5758 5763 5769 5775 5781 5783 5785 5794 5799 5807 5816 5823 5831 5834 5838 5842 5848 5853 5858 5861 5864 5868 5873 5879 5884 5887 5889 5892 5898 5901 5905 5907 5913 5915
5729 5729 5731 5736 5739 5742 5743 5743 5744 5745 5748 5753 5757 5766 5767 5771 5774 5779 5787 5793 5807 5812 5819 5823 5827 5830 5837 5844 5848 5853 5855 5858 5865 5872 5878 5880 5883 5886 5889 5895 5897 5902 5907 5909
5720 5722 5723 5724 5726 5730 5729 5732 5731 5733 5737 5742 5746 5753 5756 5756 5760 5766 5773 5782 5792 5800 5806 5810 5815 5819 5827 5835 5838 5843 5849 5852 5855 5862 5867 5871 5875 5878 5881 5886 5891 5895 5898 5903
5710 5712 5713 5714 5716 5718 5716 5716 5713 5714 5717 5721 5726 5734 5742 5742 5743 5749 5760 5768 5777 5786 5793 5800 5803 5809 5814 5822 5827 5830 5835 5841 5843 5848 5855 5861 5865 5870 5874 5879 5882 5887 5890 5895
5704 5703 5705 5706 5707 5707 5707 5704 5699 5694 5695 5699 5702 5709 5719 5725 5727 5733 5744 5754 5762 5771 5779 5787 5793 5797 5803 5808 5814 5818 5822 5825 5830 5838 5847 5855 5860 5865 5870 5870 5872 5877 5882 5886
5697 5697 5698 5699 5699 5700 5698 5693 5689 5683 5687 5682 5685 5687 5694 5706 5710 5717 5721 5737 5746 5756 5766 5773 5780 5786 5791 5795 5799 5807 5815 5821 5827 5832 5838 5844 5853 5859 5862 5862 5865 5869 5874 5878
5691 5691 5692 5693 5691 5690 5687 5684 5680 5676 5671 5671 5672 5673 5676 5683 5692 5698 5704 5713 5729 5737 5749 5755 5764 5774 5780 5785 5789 5794 5802 5811 5818 5823 5828 5833 5842 5849 5852 5856 5860 5862 5866 5871
5691 5689 5688 5686 5683 5678 5675 5671 5667 5663 5661 5659 5660 5662 5663 5668 5675 5682 5688 5692 5710 5721 5733 5741 5747 5756 5765 5773 5779 5785 5792 5796 5806 5810 5815 5822 5830 5837 5844 5848 5850 5854 5858 5862
5687 5686 5684 5681 5676 5671 5667 5662 5655 5651 5649 5647 5646 5649 5652 5655 5659 5665 5673 5677 5688 5704 5715 5725 5732 5741 5751 5758 5768 5773 5781 5790 5799 5804 5810 5816 5822 5829 5834 5838 5840 5846 5851 5854
5682 5680 5677 5673 5668 5663 5659 5653 5647 5643 5638 5636 5636 5637 5639 5643 5648 5652 5661 5666 5672 5687 5698 5707 5716 5726 5733 5744 5754 5762 5769 5778 5787 5795 5800 5806 5813 5819 5823 5829 5833 5837 5843 5845
5679 5676 5672 5668 5664 5659 5654 5648 5642 5636 5631 5626 5627 5627 5628 5631 5637 5639 5647 5654 5658 5671 5682 5690 5698 5706 5720 5726 5739 5740 5754 5763 5773 5783 5788 5792 5800 5805 5811 5817 5823 5828 5835 5836